Regional Weather Roundup
Issued by NWS Goodland, KS

Home | Current Version | Previous Version | Text Only | Print | Product List | Glossary On
Versions: 1 2 3 4 5 6 7 8 9 10 11 12 13 14 15 16 17 18 19 20 21 22 23 24 25 26 27 28 29 30 31 32 33 34 35 36 37 38 39 40 41 42 43 44 45 46 47 48 49 50
000
ASUS43 KGLD 300308
RWRGLD

GOODLAND FORECAST AREA HOURLY WEATHER ROUNDUP
NATIONAL WEATHER SERVICE GOODLAND KS
800 PM MST THU JAN 29 2015

...OFFICIAL OBSERVATIONS...

CITY           SKY/WX    TMP DP  RH WIND       PRES   REMARKS
GOODLAND KS    CLEAR     26  20  77 S8        30.47R
HILL CITY KS   PTCLDY    25  17  72 W3        30.51S
IMPERIAL NEB   PTCLDY    26  16  65 CALM      30.46S
MCCOOK NEB     CLEAR     30  19  63 CALM      30.48S
AKRON CO       PTCLDY    33  18  53 SE10      30.42R
BURLINGTON CO  CLEAR     31  18  58 SE8       30.45S
LIMON CO       PTCLDY    29  20  69 SE7       30.43S
$$

...UNOFFICIAL OBSERVATIONS...

CITY           SKY/WX    TMP DP  RH WIND       PRES   REMARKS
COLBY KS       CLEAR     30  25  80 CALM      30.48S
GOVE KS          N/A     23  32 100 MISG        N/A
NORTON KS      CLEAR     25  18  74 SW3       30.49S
SHARON SPRINGS   N/A     29  18  63 SE8         N/A
KIT CARSON CO    N/A     30  15  53 MISG        N/A
YUMA CO          N/A     29  15  55 E7          N/A
$$


USA.gov is the U.S. government's official web portal to all federal, state and local government web resources and services.